QPF
0.01 0.00 0.01 0.01 0.03 0.04 0.05 0.05 0.06 0.04 0.04 0.05 0.07 0.11 0.17 0.21 0.25 0.35 0.21 0.02 0.00 0.00 0.00 0.00 0.00 0.00 0.00 0.00 0.00 0.00 0.00 0.00 0.00 0.00 0.00 0.00 0.00 0.00 0.00 0.00 0.00 0.00 0.00 0.01 0.00 0.02 0.00 0.00 0.00 0.00 0.00 0.00 0.00 0.00
0.01 0.01 0.01 0.01 0.02 0.04 0.05 0.05 0.07 0.07 0.05 0.05 0.07 0.09 0.12 0.17 0.22 0.35 0.27 0.11 0.01 0.01 0.00 0.00 0.00 0.00 0.00 0.00 0.00 0.00 0.00 0.00 0.00 0.00 0.00 0.00 0.00 0.00 0.00 0.00 0.00 0.00 0.00 0.00 0.00 0.00 0.00 0.00 0.00 0.00 0.00 0.00 0.00 0.00
0.01 0.01 0.01 0.01 0.01 0.02 0.04 0.04 0.05 0.05 0.06 0.07 0.07 0.08 0.11 0.15 0.20 0.40 0.35 0.22 0.09 0.06 0.03 0.00 0.00 0.00 0.00 0.00 0.00 0.00 0.00 0.00 0.00 0.00 0.00 0.00 0.00 0.00 0.00 0.00 0.00 0.00 0.00 0.00 0.00 0.00 0.00 0.00 0.00 0.00 0.00 0.00 0.00 0.00
0.02 0.01 0.01 0.01 0.01 0.02 0.03 0.04 0.04 0.04 0.04 0.05 0.05 0.07 0.11 0.13 0.18 0.32 0.46 0.35 0.17 0.05 0.04 0.00 0.00 0.00 0.00 0.00 0.00 0.00 0.00 0.00 0.00 0.00 0.00 0.00 0.00 0.00 0.00 0.00 0.00 0.00 0.00 0.01 0.02 0.00 0.02 0.01 0.00 0.00 0.00 0.00 0.00 0.00
0.02 0.02 0.02 0.01 0.01 0.02 0.02 0.03 0.04 0.04 0.04 0.04 0.05 0.07 0.09 0.11 0.17 0.30 0.44 0.50 0.22 0.06 0.03 0.00 0.00 0.00 0.00 0.00 0.00 0.00 0.00 0.00 0.00 0.00 0.00 0.00 0.00 0.00 0.01 0.02 0.01 0.00 0.00 0.01 0.02 0.00 0.02 0.00 0.00 0.00 0.00 0.00 0.00 0.00
0.04 0.03 0.01 0.01 0.01 0.02 0.02 0.04 0.05 0.05 0.04 0.05 0.05 0.07 0.09 0.11 0.16 0.29 0.45 0.54 0.46 0.21 0.12 0.04 0.01 0.00 0.00 0.00 0.00 0.00 0.00 0.00 0.01 0.02 0.03 0.03 0.02 0.01 0.08 0.06 0.00 0.00 0.00 0.00 0.00 0.00 0.00 0.00 0.00 0.00 0.00 0.00 0.00 0.00
0.08 0.03 0.01 0.00 0.01 0.01 0.01 0.02 0.03 0.05 0.04 0.05 0.05 0.07 0.08 0.08 0.11 0.27 0.43 0.39 0.41 0.47 0.44 0.42 0.23 0.06 0.01 0.01 0.04 0.06 0.07 0.09 0.11 0.14 0.17 0.16 0.09 0.10 0.17 0.07 0.00 0.00 0.00 0.00 0.00 0.00 0.00 0.00 0.00 0.00 0.00 0.00 0.00 0.00
0.03 0.01 0.00 0.01 0.01 0.02 0.02 0.01 0.02 0.03 0.05 0.08 0.11 0.08 0.08 0.09 0.12 0.20 0.25 0.27 0.25 0.39 0.59 0.59 0.36 0.11 0.05 0.03 0.06 0.14 0.18 0.23 0.29 0.32 0.28 0.16 0.15 0.18 0.13 0.02 0.00 0.00 0.00 0.01 0.00 0.00 0.00 0.00 0.00 0.00 0.00 0.00 0.00 0.00
0.01 0.00 0.00 0.02 0.03 0.03 0.03 0.03 0.02 0.06 0.12 0.15 0.23 0.13 0.12 0.12 0.12 0.13 0.18 0.24 0.30 0.50 0.69 0.57 0.32 0.12 0.05 0.03 0.03 0.09 0.16 0.23 0.27 0.23 0.17 0.12 0.14 0.11 0.05 0.01 0.01 0.02 0.03 0.01 0.00 0.00 0.00 0.00 0.00 0.00 0.00 0.00 0.00 0.00
0.00 0.00 0.00 0.03 0.05 0.04 0.02 0.02 0.03 0.10 0.16 0.24 0.24 0.13 0.10 0.05 0.08 0.12 0.16 0.18 0.27 0.43 0.48 0.41 0.25 0.12 0.06 0.04 0.08 0.15 0.19 0.19 0.20 0.13 0.09 0.10 0.06 0.01 0.01 0.05 0.06 0.04 0.01 0.00 0.00 0.00 0.00 0.00 0.00 0.00 0.00 0.00 0.00 0.00
0.00 0.00 0.01 0.04 0.07 0.07 0.05 0.03 0.10 0.27 0.33 0.18 0.15 0.09 0.05 0.07 0.16 0.20 0.18 0.17 0.19 0.18 0.16 0.13 0.11 0.06 0.08 0.09 0.11 0.17 0.17 0.15 0.13 0.07 0.05 0.06 0.01 0.00 0.03 0.05 0.02 0.00 0.00 0.00 0.00 0.00 0.00 0.00 0.00 0.00 0.00 0.00 0.00 0.00
0.00 0.03 0.04 0.03 0.05 0.06 0.06 0.05 0.12 0.23 0.14 0.11 0.09 0.08 0.09 0.11 0.15 0.16 0.16 0.14 0.12 0.09 0.07 0.05 0.07 0.09 0.10 0.11 0.12 0.13 0.12 0.11 0.09 0.03 0.02 0.02 0.00 0.01 0.01 0.00 0.00 0.00 0.00 0.00 0.00 0.00 0.00 0.00 0.00 0.00 0.00 0.00 0.00 0.00
0.01 0.04 0.02 0.01 0.02 0.05 0.03 0.14 0.16 0.21 0.22 0.21 0.16 0.09 0.06 0.06 0.08 0.10 0.09 0.08 0.06 0.04 0.03 0.04 0.08 0.11 0.12 0.12 0.12 0.12 0.11 0.08 0.03 0.01 0.01 0.00 0.00 0.00 0.00 0.00 0.00 0.00 0.00 0.00 0.00 0.00 0.00 0.00 0.00 0.00 0.00 0.00 0.00 0.00
0.00 0.01 0.00 0.00 0.00 0.01 0.09 0.24 0.15 0.16 0.25 0.18 0.10 0.05 0.03 0.03 0.03 0.03 0.04 0.04 0.06 0.08 0.08 0.09 0.09 0.09 0.09 0.08 0.09 0.07 0.07 0.04 0.03 0.02 0.00 0.00 0.00 0.00 0.00 0.00 0.00 0.00 0.00 0.00 0.00 0.00 0.00 0.00 0.00 0.00 0.00 0.00 0.00 0.00
0.00 0.00 0.00 0.00 0.00 0.02 0.29 0.15 0.18 0.11 0.11 0.09 0.05 0.03 0.01 0.01 0.02 0.05 0.08 0.07 0.08 0.10 0.09 0.08 0.06 0.06 0.07 0.05 0.04 0.03 0.04 0.04 0.02 0.01 0.00 0.00 0.00 0.00 0.00 0.00 0.00 0.00 0.00 0.00 0.00 0.00 0.00 0.00 0.00 0.00 0.00 0.00 0.00 0.00
0.00 0.00 0.00 0.00 0.01 0.07 0.11 0.05 0.17 0.10 0.08 0.07 0.03 0.01 0.01 0.01 0.02 0.03 0.04 0.03 0.03 0.04 0.02 0.00 0.01 0.01 0.02 0.01 0.01 0.02 0.02 0.01 0.00 0.00 0.00 0.00 0.00 0.00 0.00 0.00 0.00 0.00 0.00 0.00 0.00 0.00 0.00 0.00 0.00 0.00 0.00 0.00 0.00 0.00
0.00 0.00 0.01 0.00 0.02 0.16 0.11 0.09 0.10 0.03 0.04 0.04 0.04 0.03 0.03 0.01 0.01 0.01 0.01 0.00 0.00 0.00 0.00 0.00 0.00 0.00 0.00 0.00 0.00 0.00 0.00 0.00 0.00 0.00 0.00 0.00 0.00 0.00 0.00 0.00 0.00 0.00 0.00 0.00 0.00 0.00 0.00 0.00 0.00 0.00 0.00 0.00 0.00 0.00
0.00 0.01 0.00 0.00 0.01 0.12 0.21 0.07 0.05 0.03 0.02 0.02 0.04 0.05 0.05 0.02 0.00 0.00 0.00 0.00 0.00 0.00 0.00 0.00 0.00 0.00 0.00 0.00 0.00 0.00 0.00 0.00 0.00 0.00 0.00 0.00 0.00 0.00 0.00 0.00 0.01 0.00 0.00 0.00 0.00 0.00 0.00 0.00 0.00 0.00 0.00 0.00 0.00 0.00
0.02 0.02 0.02 0.00 0.01 0.06 0.07 0.03 0.02 0.00 0.03 0.03 0.04 0.06 0.03 0.01 0.01 0.01 0.00 0.00 0.00 0.00 0.00 0.00 0.00 0.00 0.00 0.00 0.00 0.00 0.00 0.00 0.00 0.00 0.00 0.00 0.00 0.01 0.01 0.01 0.01 0.00 0.00 0.00 0.00 0.00 0.00 0.00 0.00 0.00 0.00 0.00 0.00 0.00
0.01 0.01 0.01 0.01 0.05 0.05 0.01 0.01 0.00 0.01 0.04 0.06 0.05 0.04 0.01 0.01 0.00 0.00 0.00 0.00 0.00 0.00 0.00 0.00 0.00 0.01 0.00 0.00 0.00 0.01 0.01 0.00 0.00 0.00 0.00 0.00 0.00 0.01 0.01 0.00 0.00 0.00 0.00 0.00 0.00 0.00 0.00 0.00 0.00 0.00 0.00 0.00 0.00 0.00
0.00 0.01 0.01 0.01 0.01 0.01 0.01 0.00 0.00 0.00 0.01 0.04 0.06 0.04 0.02 0.00 0.00 0.00 0.00 0.00 0.00 0.00 0.00 0.01 0.01 0.01 0.01 0.01 0.01 0.01 0.01 0.01 0.00 0.00 0.00 0.00 0.01 0.01 0.01 0.00 0.00 0.00 0.00 0.00 0.00 0.00 0.00 0.00 0.00 0.00 0.00 0.00 0.00 0.00
0.02 0.02 0.02 0.04 0.03 0.01 0.00 0.02 0.03 0.02 0.00 0.02 0.02 0.00 0.00 0.00 0.00 0.00 0.00 0.00 0.00 0.01 0.01 0.01 0.01 0.01 0.01 0.01 0.01 0.01 0.01 0.01 0.01 0.00 0.00 0.00 0.00 0.00 0.00 0.00 0.00 0.00 0.00 0.00 0.00 0.00 0.00 0.00 0.00 0.00 0.00 0.00 0.00 0.00
0.05 0.02 0.00 0.00 0.00 0.00 0.00 0.00 0.00 0.00 0.00 0.00 0.00 0.00 0.00 0.00 0.00 0.00 0.00 0.00 0.01 0.01 0.01 0.01 0.01 0.01 0.01 0.01 0.01 0.01 0.01 0.01 0.01 0.00 0.00 0.00 0.00 0.00 0.00 0.00 0.00 0.00 0.00 0.00 0.00 0.00 0.00 0.00 0.00 0.00 0.00 0.00 0.00 0.00
0.00 0.00 0.00 0.00 0.00 0.00 0.00 0.00 0.00 0.00 0.00 0.00 0.00 0.00 0.00 0.00 0.00 0.00 0.00 0.00 0.01 0.00 0.00 0.01 0.01 0.01 0.01 0.01 0.01 0.01 0.01 0.01 0.01 0.00 0.00 0.00 0.00 0.00 0.00 0.00 0.00 0.00 0.00 0.00 0.00 0.00 0.00 0.00 0.00 0.00 0.00 0.00 0.00 0.00
0.00 0.00 0.00 0.00 0.00 0.00 0.00 0.00 0.00 0.00 0.00 0.00 0.00 0.00 0.00 0.00 0.00 0.00 0.00 0.00 0.00 0.00 0.00 0.00 0.01 0.01 0.01 0.01 0.01 0.01 0.01 0.01 0.00 0.00 0.00 0.00 0.00 0.00 0.00 0.00 0.00 0.00 0.00 0.00 0.00 0.00 0.00 0.00 0.00 0.00 0.00 0.00 0.00 0.00
0.00 0.00 0.00 0.00 0.00 0.00 0.00 0.00 0.00 0.00 0.00 0.00 0.00 0.00 0.00 0.00 0.00 0.00 0.00 0.00 0.00 0.00 0.00 0.00 0.00 0.00 0.00 0.01 0.01 0.01 0.00 0.00 0.00 0.00 0.00 0.00 0.00 0.00 0.00 0.00 0.00 0.00 0.00 0.00 0.00 0.00 0.00 0.00 0.00 0.00 0.00 0.00 0.00 0.00
0.00 0.00 0.00 0.00 0.00 0.00 0.00 0.00 0.00 0.00 0.00 0.00 0.00 0.00 0.00 0.00 0.00 0.00 0.00 0.00 0.00 0.00 0.00 0.00 0.00 0.00 0.00 0.00 0.00 0.00 0.00 0.00 0.00 0.00 0.00 0.00 0.00 0.00 0.00 0.00 0.00 0.00 0.00 0.00 0.00 0.00 0.00 0.00 0.00 0.00 0.00 0.00 0.00 0.00
0.00 0.00 0.00 0.00 0.00 0.00 0.00 0.00 0.00 0.00 0.00 0.01 0.01 0.01 0.00 0.00 0.00 0.00 0.00 0.00 0.00 0.00 0.00 0.00 0.00 0.00 0.00 0.00 0.00 0.00 0.00 0.00 0.00 0.00 0.00 0.00 0.00 0.00 0.00 0.00 0.00 0.00 0.01 0.00 0.00 0.00 0.00 0.00 0.00 0.00 0.01 0.00 0.00 0.00
0.00 0.00 0.00 0.00 0.00 0.00 0.00 0.00 0.00 0.00 0.01 0.00 0.00 0.00 0.00 0.00 0.00 0.00 0.00 0.00 0.00 0.00 0.00 0.00 0.00 0.00 0.00 0.00 0.00 0.00 0.00 0.00 0.00 0.00 0.00 0.00 0.00 0.00 0.00 0.00 0.00 0.00 0.00 0.00 0.00 0.01 0.01 0.01 0.02 0.01 0.01 0.01 0.00 0.00
0.00 0.00 0.00 0.00 0.00 0.00 0.00 0.00 0.00 0.00 0.00 0.00 0.00 0.00 0.00 0.00 0.00 0.00 0.00 0.00 0.00 0.00 0.00 0.00 0.00 0.00 0.00 0.00 0.00 0.00 0.00 0.00 0.00 0.00 0.00 0.00 0.00 0.00 0.00 0.00 0.00 0.00 0.00 0.00 0.00 0.00 0.00 0.00 0.00 0.02 0.01 0.01 0.00 0.00
0.00 0.00 0.00 0.00 0.00 0.00 0.00 0.00 0.00 0.00 0.00 0.00 0.00 0.00 0.00 0.00 0.00 0.00 0.00 0.00 0.00 0.00 0.00 0.00 0.00 0.00 0.00 0.00 0.00 0.00 0.00 0.00 0.00 0.00 0.00 0.00 0.00 0.00 0.00 0.00 0.00 0.00 0.00 0.00 0.00 0.00 0.00 0.00 0.00 0.00 0.01 0.01 0.01 0.01
0.00 0.00 0.00 0.00 0.00 0.00 0.00 0.00 0.00 0.00 0.00 0.00 0.00 0.00 0.00 0.00 0.00 0.00 0.00 0.00 0.00 0.00 0.00 0.00 0.00 0.00 0.00 0.00 0.00 0.00 0.00 0.00 0.00 0.00 0.00 0.00 0.00 0.00 0.00 0.00 0.00 0.00 0.00 0.00 0.00 0.00 0.00 0.00 0.00 0.00 0.00 0.00 0.00 0.00
0.00 0.00 0.00 0.00 0.00 0.00 0.00 0.00 0.00 0.00 0.00 0.00 0.00 0.00 0.00 0.00 0.00 0.00 0.00 0.00 0.00 0.00 0.00 0.00 0.00 0.00 0.00 0.00 0.00 0.00 0.00 0.00 0.00 0.00 0.01 0.01 0.01 0.02 0.05 0.02 0.00 0.00 0.00 0.00 0.00 0.00 0.00 0.00 0.00 0.00 0.00 0.00 0.00 0.00
MSLP
1019.29 1018.91 1018.52 1018.16 1017.72 1017.29 1016.96 1016.81 1016.77 1015.76 1015.26 1014.99 1014.64 1014.36 1014.17 1013.96 1014.01 1013.70 1012.81 1011.03 1011.88 1012.51 1012.66 1012.67 1012.56 1013.00 1013.34 1013.84 1015.07 1016.42 1017.51 1018.11 1018.47 1018.64 1018.85 1018.94 1019.18 1019.06 1019.53 1019.82 1020.44 1020.93 1021.76 1022.13 1022.15 1021.71 1020.04 1018.53 1019.96 1020.27 1019.93 1020.46 1021.25 1022.20
1018.01 1017.74 1017.40 1017.07 1016.77 1016.40 1016.13 1015.71 1015.50 1014.80 1014.26 1014.18 1013.93 1013.71 1013.37 1013.01 1012.99 1013.16 1012.50 1010.88 1010.43 1011.54 1011.77 1012.04 1012.55 1012.89 1012.98 1013.35 1013.92 1015.11 1014.74 1015.26 1015.87 1017.03 1017.65 1017.92 1018.45 1018.72 1018.61 1019.08 1018.86 1019.26 1018.16 1019.02 1019.26 1018.40 1018.12 1018.45 1018.93 1019.63 1020.15 1021.08 1022.15 1022.93
1016.79 1016.50 1016.35 1015.99 1015.71 1015.39 1015.09 1014.64 1014.45 1014.21 1013.55 1013.28 1013.03 1012.73 1012.34 1012.19 1012.14 1012.27 1011.73 1011.25 1009.78 1010.41 1011.70 1012.24 1012.35 1012.89 1013.23 1013.50 1013.65 1013.98 1014.66 1014.36 1014.79 1014.49 1015.91 1016.88 1017.36 1017.64 1017.95 1017.62 1017.44 1017.35 1017.16 1017.78 1018.37 1017.82 1018.21 1018.89 1019.75 1020.49 1021.16 1022.18 1023.01 1023.79
1015.54 1015.27 1015.08 1014.99 1014.72 1014.51 1014.26 1014.16 1013.73 1013.53 1012.84 1012.37 1012.14 1012.03 1011.80 1011.36 1011.10 1010.93 1010.77 1010.20 1009.66 1009.32 1010.47 1011.37 1012.02 1012.62 1013.05 1013.39 1013.63 1013.69 1013.84 1013.97 1014.48 1014.98 1015.52 1016.01 1016.40 1016.04 1016.61 1016.27 1016.38 1016.45 1016.87 1017.57 1018.15 1018.49 1018.98 1019.85 1020.47 1021.47 1022.45 1023.18 1023.96 1024.86
1014.08 1013.83 1013.92 1013.88 1013.71 1013.58 1013.39 1013.03 1012.78 1012.64 1012.01 1011.44 1011.41 1011.43 1011.01 1010.70 1010.53 1010.23 1009.92 1009.42 1009.08 1007.98 1009.26 1011.33 1012.08 1012.86 1013.09 1013.27 1013.36 1013.53 1013.87 1014.35 1014.85 1015.64 1015.74 1015.88 1015.74 1016.14 1016.70 1016.86 1016.05 1015.58 1016.20 1017.22 1017.30 1017.68 1018.73 1020.14 1021.15 1022.08 1022.98 1023.89 1024.64 1025.32
1012.38 1012.36 1012.44 1012.67 1012.67 1012.59 1012.48 1012.16 1012.14 1011.88 1011.29 1010.92 1010.92 1010.56 1010.27 1009.99 1009.94 1009.47 1008.91 1008.26 1008.47 1007.05 1008.50 1011.05 1012.42 1012.91 1013.22 1013.38 1013.50 1013.53 1013.82 1014.36 1014.56 1014.81 1015.43 1015.19 1015.08 1015.49 1016.29 1016.12 1015.14 1015.23 1015.72 1016.24 1017.52 1018.68 1019.50 1020.72 1021.76 1022.61 1023.61 1024.49 1025.21 1025.77
1010.98 1010.67 1011.34 1011.49 1011.71 1011.79 1011.73 1011.55 1011.19 1010.85 1010.45 1010.11 1009.93 1009.71 1009.52 1009.34 1009.43 1009.21 1008.81 1008.68 1008.32 1007.85 1007.73 1010.62 1012.06 1012.90 1013.14 1013.71 1014.16 1014.21 1014.38 1014.68 1014.86 1015.09 1015.26 1015.20 1015.68 1015.47 1015.80 1015.81 1015.89 1016.50 1016.98 1017.55 1018.54 1019.50 1021.39 1021.81 1022.68 1023.43 1024.11 1024.90 1025.66 1026.41
1009.75 1010.09 1010.36 1010.64 1010.89 1010.96 1010.84 1010.55 1010.44 1010.22 1009.87 1009.44 1009.32 1008.93 1008.69 1008.86 1009.35 1009.39 1008.88 1008.67 1008.18 1008.06 1008.07 1009.82 1012.02 1013.24 1013.41 1013.55 1014.24 1014.34 1014.41 1014.84 1015.12 1015.02 1015.16 1015.40 1016.07 1016.05 1016.30 1016.46 1017.16 1017.95 1018.52 1019.22 1019.98 1020.22 1020.70 1022.16 1023.39 1024.33 1024.98 1025.57 1026.22 1026.81
1009.17 1009.42 1009.80 1010.09 1010.28 1010.27 1010.20 1010.26 1009.95 1009.52 1009.12 1008.79 1008.93 1008.53 1008.95 1009.26 1009.57 1009.15 1008.95 1008.76 1008.68 1009.45 1009.42 1010.27 1011.30 1012.64 1013.13 1013.40 1013.88 1014.20 1014.03 1014.75 1015.38 1015.32 1015.49 1015.79 1016.23 1016.56 1016.63 1017.18 1017.99 1018.68 1019.10 1020.34 1021.27 1021.74 1022.50 1023.33 1024.38 1025.11 1025.68 1026.28 1026.88 1027.42
1008.80 1009.16 1009.50 1009.74 1009.74 1009.70 1009.57 1009.58 1009.40 1008.85 1008.40 1008.50 1008.73 1008.92 1009.29 1009.64 1009.35 1009.26 1008.95 1009.03 1009.31 1009.80 1009.81 1010.48 1011.32 1012.32 1012.74 1013.05 1013.79 1014.18 1014.14 1014.76 1015.20 1015.98 1015.89 1016.04 1016.69 1017.44 1017.83 1017.91 1018.50 1019.20 1019.99 1020.86 1021.72 1022.86 1023.48 1024.32 1025.05 1025.80 1026.41 1027.01 1027.47 1027.99
1008.77 1009.05 1009.37 1009.39 1009.33 1009.29 1009.31 1009.20 1008.63 1008.12 1008.23 1008.41 1008.83 1009.26 1009.70 1009.54 1009.49 1009.28 1009.03 1009.06 1009.51 1010.15 1010.51 1011.11 1011.51 1012.04 1012.74 1012.86 1013.40 1013.69 1014.00 1014.57 1015.14 1015.95 1016.23 1016.77 1017.69 1018.54 1019.01 1019.19 1019.56 1020.12 1020.82 1021.52 1021.80 1022.39 1023.29 1024.09 1025.24 1026.22 1027.11 1027.69 1028.18 1028.69
1008.86 1009.08 1009.18 1009.07 1008.97 1008.89 1008.97 1008.46 1007.98 1008.18 1008.47 1008.59 1008.91 1009.46 1009.57 1009.56 1009.40 1009.22 1009.40 1009.67 1009.63 1010.45 1010.94 1011.20 1011.78 1012.25 1012.81 1012.80 1013.32 1014.05 1014.34 1014.84 1015.51 1016.11 1016.72 1017.57 1018.78 1019.57 1020.15 1020.48 1020.93 1021.32 1021.90 1022.59 1022.95 1023.57 1024.23 1024.96 1025.74 1026.51 1027.51 1028.37 1028.74 1029.05
1008.96 1009.07 1009.08 1009.01 1008.75 1008.43 1008.24 1007.96 1007.72 1008.20 1008.49 1008.89 1009.12 1009.43 1009.32 1009.62 1009.68 1009.86 1010.08 1010.27 1010.51 1010.66 1011.20 1011.52 1011.96 1012.51 1012.99 1013.26 1013.89 1014.21 1014.74 1015.79 1016.12 1016.73 1017.51 1018.69 1019.52 1020.61 1021.32 1021.75 1022.17 1022.48 1022.98 1023.64 1024.42 1024.97 1025.51 1026.23 1026.84 1027.54 1028.40 1028.95 1029.32 1029.58
1009.00 1009.04 1009.00 1008.93 1008.64 1008.33 1007.83 1008.03 1008.28 1008.72 1009.09 1009.12 1009.25 1009.79 1010.10 1010.45 1011.00 1010.96 1010.74 1010.96 1011.24 1011.12 1011.30 1011.73 1012.42 1012.95 1013.40 1013.97 1014.52 1015.20 1016.32 1016.53 1017.15 1017.93 1018.83 1019.59 1020.50 1021.41 1022.20 1022.84 1023.21 1023.69 1024.07 1024.74 1025.56 1026.08 1026.72 1027.35 1027.97 1028.48 1028.95 1029.34 1029.67 1030.02
1009.20 1009.09 1008.98 1008.81 1008.58 1008.48 1008.32 1008.52 1008.61 1009.16 1009.48 1009.74 1009.82 1010.91 1011.50 1012.06 1012.02 1011.90 1011.83 1011.87 1012.01 1011.96 1011.93 1012.28 1013.04 1013.55 1014.15 1014.92 1015.66 1016.34 1017.01 1017.63 1018.35 1019.22 1019.93 1020.67 1021.32 1022.03 1022.93 1023.68 1024.24 1024.68 1025.40 1026.10 1026.67 1027.22 1027.85 1028.32 1028.79 1029.23 1029.66 1030.00 1030.11 1030.24
1009.42 1009.35 1009.24 1008.96 1008.76 1008.95 1009.22 1009.16 1009.67 1010.09 1010.63 1011.13 1011.96 1012.55 1012.67 1012.73 1013.06 1013.02 1013.11 1013.15 1013.04 1012.88 1012.83 1012.95 1013.85 1014.69 1015.69 1016.24 1016.76 1017.41 1018.01 1019.08 1020.06 1020.72 1021.36 1021.84 1022.57 1023.29 1023.76 1024.30 1024.93 1025.47 1026.12 1026.90 1027.38 1027.86 1028.50 1028.89 1029.27 1029.74 1029.99 1030.25 1030.55 1030.48
1009.70 1009.98 1009.58 1009.63 1009.73 1009.80 1010.07 1010.35 1010.93 1011.87 1012.51 1012.94 1013.71 1013.77 1013.52 1013.92 1014.41 1014.55 1014.44 1014.42 1014.20 1014.08 1014.47 1014.47 1015.22 1016.90 1017.32 1018.14 1018.98 1019.30 1020.10 1020.70 1021.18 1021.87 1022.32 1022.71 1023.26 1023.81 1024.31 1024.83 1025.46 1026.07 1026.80 1027.45 1027.92 1028.55 1029.01 1029.35 1029.66 1029.98 1030.32 1030.41 1030.32 1030.32
1010.36 1010.24 1010.32 1010.25 1010.23 1010.82 1011.77 1012.29 1012.87 1013.72 1014.62 1015.06 1015.00 1015.30 1015.30 1015.39 1015.69 1015.87 1015.88 1015.67 1015.31 1015.37 1015.76 1016.49 1017.05 1018.42 1019.57 1020.33 1021.16 1021.53 1021.76 1022.09 1022.54 1023.00 1023.36 1023.62 1024.07 1024.49 1024.79 1025.22 1025.85 1026.46 1027.14 1027.48 1028.06 1028.63 1029.16 1029.45 1029.61 1029.67 1029.90 1029.83 1029.89 1029.86
1010.87 1010.98 1011.07 1011.00 1010.99 1011.97 1013.50 1014.52 1014.79 1015.88 1016.53 1016.48 1016.52 1016.49 1016.62 1016.93 1017.05 1017.08 1017.04 1016.69 1016.48 1016.50 1017.04 1018.17 1019.75 1021.33 1022.20 1022.61 1022.89 1022.88 1022.69 1022.81 1023.32 1023.84 1024.33 1024.55 1024.81 1025.10 1025.35 1025.70 1026.33 1026.97 1027.43 1027.78 1028.17 1028.59 1028.79 1028.98 1029.07 1029.23 1029.30 1029.41 1029.74 1029.69
1011.93 1012.16 1012.20 1011.91 1011.70 1013.50 1015.41 1016.47 1016.36 1016.95 1017.72 1018.03 1017.90 1018.06 1018.31 1018.56 1018.57 1018.48 1018.38 1018.23 1018.00 1018.48 1020.30 1021.85 1023.44 1024.04 1024.22 1024.48 1024.34 1024.02 1023.64 1023.57 1023.77 1024.36 1025.05 1025.32 1025.46 1025.71 1026.03 1026.29 1026.83 1027.25 1027.61 1027.88 1028.04 1028.23 1028.53 1028.72 1028.78 1028.96 1029.09 1029.06 1029.25 1029.37
1012.64 1013.06 1012.95 1012.90 1014.51 1015.58 1017.47 1018.41 1018.66 1018.97 1018.95 1019.09 1019.38 1019.38 1019.91 1020.04 1020.42 1020.57 1020.78 1020.56 1021.31 1023.78 1024.87 1025.22 1025.48 1025.41 1025.33 1025.25 1024.99 1024.65 1024.36 1024.04 1024.23 1024.31 1024.65 1025.31 1025.76 1025.95 1026.26 1026.67 1027.14 1027.34 1027.44 1027.61 1027.92 1027.99 1027.84 1028.30 1028.36 1028.60 1028.68 1028.64 1028.65 1028.74
1013.88 1013.75 1014.20 1014.79 1016.16 1017.46 1018.89 1019.56 1019.74 1019.84 1019.98 1020.44 1020.58 1020.99 1021.72 1022.32 1022.92 1023.11 1023.13 1023.58 1025.85 1026.79 1026.67 1026.57 1026.50 1026.39 1026.09 1026.08 1025.79 1025.41 1025.01 1024.73 1024.67 1024.65 1024.58 1025.11 1025.86 1026.32 1026.76 1027.05 1027.28 1027.32 1027.32 1027.38 1027.72 1027.92 1027.93 1028.00 1028.21 1028.33 1028.38 1028.37 1028.28 1028.33
1014.46 1014.64 1015.73 1016.74 1017.81 1019.03 1020.98 1020.36 1020.86 1021.14 1021.45 1022.08 1022.16 1022.99 1023.94 1024.12 1024.13 1024.05 1025.53 1026.57 1027.28 1027.30 1027.12 1026.98 1026.80 1026.63 1026.42 1026.38 1026.21 1026.00 1025.78 1025.74 1025.88 1025.93 1025.99 1026.15 1026.36 1026.53 1026.77 1027.10 1027.19 1027.42 1027.58 1027.67 1027.71 1027.83 1027.96 1028.04 1028.14 1028.16 1028.24 1028.22 1028.30 1028.31
1015.66 1017.83 1019.07 1019.90 1020.61 1021.87 1022.08 1022.46 1022.46 1022.86 1023.16 1023.63 1024.27 1025.11 1025.22 1025.19 1024.95 1025.74 1027.42 1028.02 1028.04 1027.86 1027.65 1027.34 1027.02 1027.02 1026.91 1026.96 1027.02 1027.03 1026.85 1026.69 1026.85 1027.04 1027.10 1027.06 1027.23 1027.51 1027.54 1027.72 1027.76 1027.78 1027.76 1027.82 1027.93 1028.05 1028.12 1028.13 1028.09 1028.18 1028.24 1028.31 1028.41 1028.51
1018.14 1022.05 1022.45 1022.75 1022.79 1023.35 1024.03 1024.35 1024.72 1024.52 1025.43 1025.51 1025.66 1025.98 1025.98 1025.73 1026.25 1027.60 1028.58 1029.02 1029.04 1028.94 1028.74 1028.26 1027.77 1027.52 1027.59 1027.70 1027.80 1027.93 1027.98 1027.90 1027.93 1028.15 1028.26 1028.01 1027.96 1028.05 1028.13 1028.09 1028.12 1028.16 1028.06 1028.14 1028.14 1028.10 1028.11 1028.13 1028.15 1028.18 1028.25 1028.38 1028.52 1028.58
1022.36 1024.83 1024.98 1024.91 1024.95 1024.93 1025.46 1025.76 1025.71 1025.91 1026.17 1026.37 1026.55 1026.35 1026.09 1026.40 1027.33 1028.92 1029.61 1029.97 1030.00 1029.99 1029.83 1029.55 1029.25 1028.81 1028.71 1028.70 1028.71 1028.77 1028.89 1028.78 1028.59 1028.74 1028.99 1028.77 1028.66 1028.64 1028.69 1028.65 1028.56 1028.49 1028.30 1028.21 1028.13 1028.05 1028.02 1028.02 1028.11 1028.20 1028.28 1028.27 1028.15 1028.07
1025.63 1026.54 1026.33 1025.94 1026.11 1026.14 1026.57 1026.51 1026.52 1026.96 1027.45 1027.69 1027.37 1026.89 1026.92 1027.74 1028.88 1029.88 1030.42 1030.87 1030.91 1030.95 1030.81 1030.54 1030.31 1030.02 1029.79 1029.62 1029.51 1029.49 1029.44 1029.33 1029.36 1029.45 1029.32 1029.18 1029.10 1029.05 1029.04 1029.14 1028.88 1028.53 1028.22 1028.13 1028.05 1028.02 1028.02 1028.01 1028.01 1027.98 1027.98 1027.99 1028.09 1028.16
1027.82 1028.06 1028.05 1028.13 1028.04 1028.23 1028.41 1028.64 1028.92 1029.20 1029.12 1028.95 1028.53 1028.61 1028.93 1029.68 1030.45 1030.92 1031.17 1031.43 1031.47 1031.39 1031.20 1030.99 1030.92 1030.77 1030.56 1030.45 1030.37 1030.20 1030.05 1029.78 1029.60 1029.61 1029.54 1029.50 1029.40 1029.30 1029.19 1029.05 1028.91 1027.77 1027.85 1028.03 1027.70 1027.66 1027.72 1027.72 1027.67 1027.60 1027.60 1027.64 1027.71 1027.69
1029.34 1029.34 1029.30 1030.01 1030.27 1030.74 1031.46 1031.60 1031.45 1031.23 1031.14 1030.76 1030.48 1030.47 1030.72 1031.08 1031.58 1031.74 1031.92 1032.02 1031.98 1032.06 1032.09 1031.91 1031.77 1031.60 1031.29 1031.09 1030.97 1030.84 1030.71 1030.63 1030.47 1030.56 1030.40 1030.28 1029.88 1029.61 1029.25 1029.06 1028.73 1028.49 1028.40 1027.99 1027.48 1027.14 1027.13 1027.03 1026.93 1026.79 1026.81 1027.10 1027.22 1027.31
1030.67 1030.56 1031.05 1031.76 1032.49 1033.21 1033.47 1033.27 1033.01 1032.75 1032.26 1032.16 1032.09 1031.94 1031.94 1032.10 1032.28 1032.28 1032.57 1032.69 1032.97 1033.05 1032.90 1032.72 1032.53 1032.33 1032.28 1032.15 1031.94 1031.66 1031.34 1031.12 1031.08 1031.08 1030.98 1030.70 1030.25 1029.79 1029.40 1029.13 1028.86 1028.69 1028.52 1028.25 1027.95 1027.60 1027.23 1026.97 1026.72 1026.35 1026.69 1027.00 1027.15 1027.20
1031.37 1031.49 1032.28 1033.16 1033.75 1034.07 1034.11 1033.93 1033.62 1033.23 1033.26 1033.32 1033.12 1033.06 1032.98 1032.96 1032.60 1032.56 1032.83 1033.07 1033.34 1033.21 1033.12 1033.19 1032.93 1032.71 1032.57 1032.57 1032.42 1032.07 1031.83 1031.46 1031.30 1031.08 1030.75 1030.26 1029.79 1029.40 1029.07 1028.84 1028.68 1028.75 1028.77 1028.39 1028.11 1027.91 1027.75 1027.62 1027.53 1027.35 1027.23 1027.19 1027.14 1026.98
1032.49 1033.18 1033.51 1034.29 1034.52 1034.56 1034.53 1034.53 1034.59 1034.16 1034.24 1034.04 1034.07 1033.64 1033.35 1033.34 1033.27 1032.91 1033.01 1033.30 1033.49 1033.57 1033.04 1033.04 1033.19 1032.82 1032.50 1032.36 1032.26 1032.06 1031.59 1031.50 1031.27 1030.89 1030.31 1029.58 1028.95 1028.66 1028.32 1028.63 1028.70 1028.61 1028.62 1028.35 1028.18 1027.99 1027.81 1027.82 1027.73 1027.59 1027.43 1027.22 1027.05 1026.90
1033.58 1033.78 1034.16 1034.71 1035.10 1035.22 1035.16 1035.17 1035.09 1034.85 1034.44 1034.54 1034.37 1034.27 1034.37 1034.17 1033.68 1033.00 1032.91 1033.12 1033.22 1033.05 1033.08 1032.85 1032.56 1032.44 1032.29 1032.19 1032.07 1031.90 1031.10 1031.46 1031.07 1029.63 1029.29 1028.56 1027.79 1027.54 1027.55 1027.99 1028.14 1028.30 1028.24 1028.14 1028.02 1027.92 1027.81 1027.87 1027.83 1027.74 1027.60 1027.40 1027.17 1026.99
Thickness
5301 5299 5296 5293 5296 5303 5313 5322 5333 5355 5377 5396 5414 5432 5450 5464 5468 5476 5493 5518 5517 5518 5532 5541 5551 5552 5554 5550 5541 5534 5531 5521 5518 5527 5528 5529 5531 5528 5529 5525 5504 5504 5488 5482 5483 5484 5498 5506 5491 5500 5493 5476 5465 5451
5299 5297 5294 5291 5292 5297 5306 5317 5325 5342 5364 5384 5402 5417 5433 5452 5460 5466 5476 5502 5515 5508 5524 5524 5528 5531 5537 5541 5538 5530 5550 5533 5538 5519 5514 5515 5524 5509 5521 5524 5516 5525 5528 5505 5502 5510 5504 5500 5492 5478 5472 5461 5448 5432
5298 5296 5292 5290 5289 5293 5302 5313 5321 5333 5352 5371 5387 5405 5425 5440 5450 5456 5470 5482 5503 5506 5503 5512 5520 5516 5520 5521 5524 5529 5527 5534 5534 5538 5521 5508 5512 5508 5516 5519 5520 5521 5519 5513 5509 5509 5496 5483 5466 5459 5452 5437 5424 5413
5297 5296 5293 5289 5289 5292 5300 5308 5318 5328 5344 5358 5378 5394 5409 5429 5442 5452 5463 5478 5487 5502 5504 5508 5505 5506 5507 5510 5512 5516 5521 5518 5517 5515 5504 5507 5518 5517 5514 5523 5522 5514 5512 5495 5486 5484 5474 5462 5451 5437 5425 5415 5405 5394
5298 5297 5293 5291 5289 5291 5298 5308 5316 5324 5338 5353 5369 5383 5400 5418 5431 5442 5454 5468 5478 5502 5502 5487 5490 5489 5492 5496 5501 5504 5505 5503 5500 5496 5497 5505 5501 5499 5487 5487 5497 5510 5501 5491 5494 5483 5472 5447 5432 5423 5412 5400 5389 5379
5302 5300 5297 5291 5288 5289 5297 5308 5313 5322 5336 5348 5361 5376 5392 5409 5421 5433 5450 5465 5470 5492 5482 5482 5466 5472 5477 5481 5487 5492 5493 5491 5493 5495 5489 5490 5491 5497 5486 5490 5505 5498 5486 5485 5471 5450 5443 5429 5418 5407 5395 5382 5372 5361
5304 5303 5296 5291 5285 5287 5296 5304 5313 5323 5335 5346 5358 5374 5385 5398 5407 5423 5443 5451 5462 5472 5481 5464 5457 5455 5462 5463 5464 5468 5471 5469 5475 5475 5474 5476 5474 5478 5476 5487 5478 5465 5459 5451 5440 5430 5412 5408 5398 5387 5378 5367 5358 5343
5303 5298 5292 5286 5283 5287 5297 5306 5313 5323 5334 5347 5356 5371 5379 5386 5397 5412 5427 5437 5449 5457 5460 5451 5435 5441 5446 5455 5451 5450 5459 5457 5456 5460 5459 5464 5456 5458 5465 5456 5448 5441 5432 5424 5414 5412 5409 5390 5377 5366 5357 5348 5339 5327
5296 5291 5285 5281 5281 5290 5298 5303 5314 5325 5336 5348 5353 5364 5369 5375 5388 5403 5414 5422 5430 5431 5435 5432 5442 5445 5433 5442 5441 5444 5449 5453 5437 5448 5448 5449 5448 5454 5451 5434 5427 5419 5415 5399 5390 5385 5378 5369 5357 5348 5340 5331 5319 5309
5288 5281 5278 5280 5288 5294 5301 5308 5316 5328 5340 5346 5351 5358 5363 5370 5378 5388 5400 5407 5410 5409 5414 5420 5422 5427 5430 5434 5433 5434 5435 5432 5433 5425 5424 5433 5438 5416 5413 5415 5408 5399 5392 5385 5374 5363 5357 5348 5341 5330 5321 5310 5301 5290
5277 5274 5275 5284 5291 5298 5304 5310 5322 5335 5340 5345 5345 5352 5355 5364 5368 5376 5393 5405 5404 5401 5400 5404 5409 5415 5413 5427 5422 5420 5421 5416 5421 5414 5419 5416 5413 5394 5388 5385 5382 5378 5373 5365 5364 5357 5347 5337 5323 5311 5301 5292 5281 5271
5270 5272 5279 5287 5297 5304 5308 5318 5330 5335 5337 5343 5346 5347 5351 5359 5369 5381 5383 5385 5396 5395 5391 5398 5400 5400 5401 5406 5408 5404 5402 5400 5405 5391 5399 5400 5379 5367 5363 5361 5357 5354 5349 5342 5339 5332 5323 5315 5304 5294 5282 5271 5264 5258
5273 5279 5285 5292 5299 5308 5315 5325 5333 5334 5335 5338 5342 5348 5357 5355 5374 5379 5382 5380 5380 5378 5378 5385 5389 5386 5387 5390 5388 5392 5393 5380 5376 5378 5383 5367 5355 5345 5340 5338 5333 5330 5327 5321 5313 5307 5299 5291 5283 5273 5263 5255 5248 5242
5283 5287 5292 5297 5305 5313 5324 5328 5331 5331 5330 5340 5348 5350 5351 5355 5344 5349 5360 5362 5361 5371 5374 5374 5374 5377 5375 5374 5376 5367 5354 5362 5366 5367 5360 5342 5332 5325 5321 5317 5314 5307 5305 5299 5290 5285 5279 5272 5263 5255 5247 5240 5235 5230
5287 5292 5297 5303 5310 5316 5321 5325 5329 5326 5327 5336 5344 5342 5328 5319 5326 5334 5341 5348 5351 5356 5361 5364 5364 5365 5363 5356 5353 5349 5352 5354 5352 5352 5337 5318 5312 5308 5301 5296 5291 5286 5279 5271 5265 5258 5253 5248 5244 5237 5230 5226 5223 5219
5290 5295 5301 5308 5314 5316 5318 5322 5321 5319 5319 5321 5312 5313 5321 5324 5326 5332 5335 5337 5339 5346 5350 5354 5356 5350 5342 5342 5348 5347 5350 5343 5328 5309 5300 5297 5290 5285 5282 5279 5272 5266 5259 5252 5247 5242 5238 5235 5229 5220 5215 5212 5208 5206
5296 5296 5303 5307 5312 5315 5315 5316 5316 5308 5306 5310 5306 5307 5318 5316 5314 5316 5320 5323 5326 5336 5337 5337 5341 5323 5315 5320 5317 5312 5312 5300 5291 5287 5285 5280 5279 5274 5267 5263 5257 5250 5243 5237 5231 5226 5220 5214 5209 5207 5206 5200 5196 5195
5296 5301 5304 5307 5310 5309 5304 5304 5303 5298 5291 5289 5299 5298 5299 5301 5306 5309 5311 5309 5319 5320 5319 5316 5312 5309 5306 5306 5298 5280 5273 5271 5271 5269 5267 5264 5259 5256 5254 5249 5243 5237 5230 5225 5218 5212 5206 5202 5200 5199 5196 5194 5191 5187
5299 5300 5302 5306 5309 5304 5297 5291 5290 5276 5276 5284 5287 5290 5292 5292 5294 5298 5294 5301 5301 5304 5307 5296 5293 5279 5284 5271 5267 5262 5260 5262 5256 5251 5245 5243 5242 5238 5234 5229 5224 5219 5214 5208 5205 5202 5198 5194 5191 5189 5187 5185 5180 5175
5294 5295 5298 5303 5308 5297 5281 5275 5280 5280 5276 5274 5278 5279 5279 5280 5284 5289 5284 5291 5297 5286 5275 5279 5253 5245 5245 5239 5244 5248 5250 5247 5242 5233 5227 5224 5220 5219 5216 5214 5210 5204 5199 5194 5193 5194 5188 5185 5182 5178 5174 5172 5170 5166
5293 5293 5296 5301 5289 5281 5265 5259 5257 5261 5268 5268 5267 5274 5271 5262 5264 5264 5258 5268 5258 5232 5235 5229 5228 5227 5227 5227 5227 5230 5228 5230 5224 5224 5223 5215 5210 5210 5207 5203 5198 5195 5192 5189 5184 5182 5186 5176 5173 5170 5167 5164 5161 5158
5290 5294 5292 5290 5281 5268 5256 5257 5259 5261 5259 5260 5262 5254 5242 5237 5236 5236 5242 5235 5216 5212 5213 5213 5213 5214 5215 5210 5210 5213 5214 5217 5217 5217 5217 5213 5203 5199 5194 5192 5189 5186 5185 5183 5177 5173 5171 5168 5164 5161 5157 5154 5153 5150
5292 5292 5282 5277 5272 5264 5249 5253 5249 5243 5248 5243 5243 5236 5226 5220 5228 5231 5218 5209 5206 5206 5206 5205 5204 5203 5205 5203 5204 5203 5203 5201 5199 5198 5196 5194 5193 5192 5189 5183 5181 5177 5172 5168 5164 5161 5157 5156 5152 5150 5146 5143 5140 5137
5288 5267 5259 5246 5248 5238 5232 5231 5229 5226 5225 5228 5219 5212 5210 5211 5222 5209 5197 5196 5196 5197 5196 5197 5198 5197 5197 5194 5191 5189 5189 5189 5186 5183 5181 5181 5178 5172 5169 5165 5161 5159 5157 5154 5150 5147 5143 5141 5141 5136 5133 5129 5126 5122
5274 5240 5237 5235 5222 5230 5214 5211 5208 5216 5208 5204 5196 5200 5204 5201 5196 5188 5186 5176 5178 5179 5178 5182 5187 5188 5186 5182 5179 5174 5171 5171 5170 5166 5161 5162 5160 5156 5154 5150 5147 5144 5143 5139 5137 5135 5132 5129 5126 5123 5119 5115 5111 5107
5223 5212 5215 5205 5210 5217 5207 5206 5206 5206 5194 5189 5195 5191 5191 5208 5202 5179 5174 5162 5166 5164 5164 5164 5166 5171 5167 5164 5162 5159 5155 5154 5154 5150 5145 5145 5142 5139 5135 5135 5133 5132 5129 5126 5124 5122 5119 5116 5112 5108 5104 5102 5104 5100
5203 5193 5206 5213 5209 5212 5208 5205 5204 5197 5193 5194 5197 5206 5204 5206 5189 5170 5158 5150 5151 5150 5149 5150 5149 5150 5150 5149 5147 5145 5142 5140 5138 5135 5133 5132 5130 5127 5124 5118 5115 5117 5115 5113 5110 5107 5103 5100 5097 5095 5091 5087 5085 5082
5189 5190 5191 5183 5185 5184 5192 5192 5186 5179 5182 5174 5185 5184 5186 5175 5170 5148 5144 5139 5139 5139 5139 5138 5136 5135 5135 5133 5131 5130 5129 5128 5126 5123 5121 5119 5116 5113 5110 5108 5105 5106 5103 5098 5096 5093 5090 5087 5085 5082 5080 5078 5076 5073
5177 5179 5178 5157 5156 5154 5142 5148 5158 5157 5152 5155 5165 5163 5152 5144 5136 5134 5134 5132 5129 5128 5126 5125 5123 5122 5121 5120 5118 5116 5114 5113 5110 5103 5101 5098 5097 5096 5096 5094 5092 5090 5088 5086 5086 5085 5083 5082 5080 5079 5076 5072 5069 5066
5162 5161 5155 5136 5141 5139 5131 5132 5129 5131 5137 5134 5135 5134 5133 5128 5125 5125 5124 5120 5117 5113 5111 5109 5108 5105 5105 5104 5102 5101 5099 5096 5093 5089 5085 5084 5081 5083 5082 5080 5079 5078 5076 5073 5071 5071 5073 5073 5072 5073 5067 5063 5060 5058
5154 5150 5143 5139 5132 5124 5121 5123 5121 5134 5121 5116 5116 5119 5122 5116 5120 5119 5115 5112 5108 5103 5101 5098 5095 5092 5092 5088 5084 5084 5083 5084 5081 5079 5077 5076 5075 5075 5075 5074 5072 5070 5067 5065 5063 5061 5060 5059 5057 5057 5055 5053 5051 5054
5143 5126 5132 5135 5128 5115 5112 5111 5106 5109 5106 5110 5108 5102 5107 5109 5110 5108 5108 5102 5097 5095 5098 5090 5087 5088 5086 5084 5081 5079 5082 5078 5077 5076 5075 5075 5076 5076 5075 5073 5070 5067 5064 5061 5059 5057 5055 5052 5050 5048 5047 5046 5044 5042
5114 5112 5109 5111 5112 5114 5109 5106 5106 5105 5102 5098 5101 5096 5091 5097 5107 5104 5103 5101 5097 5094 5092 5090 5089 5087 5086 5083 5081 5080 5080 5077 5076 5078 5077 5078 5080 5079 5077 5073 5069 5067 5064 5060 5057 5055 5053 5051 5048 5044 5042 5040 5038 5035